"2009-05-17 00:00:00",893114,3.346,355.4,3.929,0.584,14.32,106.5094,15.94,16.99,45.18,0,110.6,13.27,16.75,317.4
"2009-05-17 00:00:30",893115,3.625,358.6,4.948,0.286,14.35,106.508,15.93,17,45.11,0,110.6,13.27,16.74,320.6
"2009-05-17 00:01:00",893116,3.202,359.7,6.898,0.298,14.35,106.508,15.93,17,45.01,0,110.6,13.27,16.74,321.7
"2009-05-17 00:01:30",893117,3.192,16.06,4.764,0.37,14.14,106.5069,15.93,17,45.03,0,110.6,13.27,16.74,338.1
"2009-05-17 00:02:00",893118,2.497,3.242,9.41,0.782,14.28,106.5088,15.94,16.99,45.19,0,110.6,13.27,16.74,325.2
"2009-05-17 00:02:30",893119,3.202,353.6,4.33,0.901,14.2,106.5075,15.93,17.01,45.23,0,110.6,13.27,16.74,315.6
"2009-05-17 00:03:00",893120,3.772,358.3,3.635,0.557,14.19,106.512,15.94,16.99,45.42,0,110.6,13.27,16.75,320.3
"2009-05-17 00:03:30",893121,4.239,353.5,2.892,0.716,14.28,106.5103,15.94,17.01,45.48,0,110.6,13.27,16.75,315.5
"2009-05-17 00:04:00",893122,4.529,354.7,4.611,0.856,14.31,106.5086,15.94,17,45.53,0,110.6,13.27,16.74,316.7
"2009-05-17 00:04:30",893123,4.718,341.8,5.718,0.414,14.21,106.5024,15.92,16.99,45.75,0,110.6,13.27,16.73,303.8
"2009-05-17 00:05:00",893124,3.746,347,7.058,0.514,14.32,106.4956,15.9,16.99,45.96,0,110.6,13.27,16.71,309.0
"2009-05-17 00:05:30",893125,3.934,352.8,5.602,0.622,14.5,106.4886,15.88,16.98,46.19,0,110.6,13.27,16.69,314.8
"2009-05-17 00:06:00",893126,3.194,352.9,8.02,0.618,14.39,106.4846,15.87,16.98,46.18,0,110.6,13.27,16.68,314.9
"2009-05-17 00:06:30",893127,3.337,344.2,6.658,0.703,14.23,106.4843,15.87,16.97,46.21,0,110.6,13.27,16.68,306.2
"2009-05-17 00:07:00",893128,4.022,334.7,4.111,0.36,14.15,106.4843,15.87,16.98,46.34,0,110.6,13.27,16.68,296.7
"2009-05-17 00:07:30",893129,4.008,341,4.039,0.298,14.2,106.4843,15.87,16.96,46.48,0,110.6,13.27,16.68,303.0
"2009-05-17 00:08:00",893130,3.838,350.6,4.177,0.425,14.24,106.4843,15.87,16.96,46.49,0,110.6,13.27,16.68,312.6
"2009-05-17 00:08:30",893131,4.015,347.5,5.332,0.444,14.26,106.4843,15.87,16.98,46.44,0,110.6,13.27,16.68,309.5
"2009-05-17 00:09:00",893132,4.018,336.1,4.619,0.474,14.16,106.4843,15.87,16.96,46.54,0,110.6,13.27,16.68,298.1
"2009-05-17 00:09:30",893133,3.613,340.3,6.686,0.257,14.16,106.4843,15.87,16.94,46.53,0,110.6,13.27,16.68,302.3
"2009-05-17 00:10:00",893134,3.434,343.1,4.704,0.174,14.11,106.4843,15.87,16.94,46.62,0,110.6,13.27,16.68,305.1
"2009-05-17 00:10:30",893135,3.644,2.505,7.277,0.461,14.32,106.4843,15.87,16.94,46.56,0,110.6,13.27,16.68,324.5
"2009-05-17 00:11:00",893136,4.585,352.8,7.362,0.609,14.32,106.484,15.87,16.95,46.44,0,110.6,13.27,16.68,314.8
"2009-05-17 00:11:30",893137,4.425,351.7,4.699,0.413,14.34,106.4756,15.85,16.93,46.38,0,110.6,13.27,16.66,313.7
"2009-05-17 00:12:00",893138,4.392,343.4,3.622,0.312,14.14,106.4629,15.82,16.92,46.5,0,110.6,13.27,16.63,305.4
"2009-05-17 00:12:30",893139,4.013,346,3.374,0.184,14.2,106.457,15.8,16.93,46.6,0,110.6,13.27,16.61,308.0
"2009-05-17 00:13:00",893140,4.331,336.6,4.196,0.21,14.2,106.4516,15.79,16.92,46.64,0,110.6,13.27,16.60,298.6
"2009-05-17 00:13:30",893141,4.241,341.5,4.681,0.352,14.24,106.4505,15.79,16.91,46.61,0,110.6,13.27,16.59,303.5
"2009-05-17 00:14:00",893142,4.478,338.6,2.933,0.251,14.25,106.4505,15.79,16.89,46.75,0,110.6,13.27,16.59,300.6
"2009-05-17 00:14:30",893143,4.969,329.4,1.351,0.278,14.19,106.4505,15.79,16.88,46.7,0,110.6,13.27,16.59,291.4
"2009-05-17 00:15:00",893144,4.575,334.9,5.799,0.226,14.28,106.4505,15.79,16.89,46.67,0,110.7,13.26,16.59,296.9
"2009-05-17 00:15:30",893145,4.835,343.2,5.467,0.446,14.45,106.4505,15.79,16.89,46.67,0,110.6,13.27,16.59,305.2
"2009-05-17 00:16:00",893146,4.253,342,9.34,0.569,14.41,106.4505,15.79,16.89,46.57,0,110.6,13.26,16.59,304.0
"2009-05-17 00:16:30",893147,5.292,341.3,4.009,0.728,14.38,106.4505,15.79,16.88,46.62,0,110.6,13.26,16.59,303.3
"2009-05-17 00:17:00",893148,6.055,344,3.16,0.233,14.48,106.4505,15.79,16.88,46.8,0,110.7,13.26,16.59,306.0
"2009-05-17 00:17:30",893149,5.625,335.1,2.696,0.337,14.41,106.4491,15.78,16.85,46.87,0,110.7,13.26,16.59,297.1
"2009-05-17 00:18:00",893150,5.2,342.3,4.728,0.298,14.56,106.4418,15.76,16.86,46.82,0,110.6,13.26,16.57,304.3
"2009-05-17 00:18:30",893151,4.116,332.1,3.594,0.383,14.42,106.43,15.73,16.85,46.83,0,110.6,13.27,16.54,294.1
"2009-05-17 00:19:00",893152,4.27,338.6,2.987,0.239,14.38,106.4196,15.71,16.83,46.83,0,110.6,13.27,16.51,300.6
"2009-05-17 00:19:30",893153,4.101,332.5,6.683,0.323,14.38,106.4167,15.7,16.82,46.91,0,110.6,13.27,16.51,294.5
"2009-05-17 00:20:00",893154,3.544,339.6,6.704,0.311,14.46,106.4167,15.7,16.82,46.76,0,110.6,13.27,16.51,301.6
"2009-05-17 00:20:30",893155,3.383,337.9,5.717,0.375,14.41,106.4167,15.7,16.82,46.67,0,110.6,13.27,16.51,299.9
"2009-05-17 00:21:00",893156,3.415,339.3,5.972,0.35,14.38,106.4167,15.7,16.8,46.44,0,110.6,13.27,16.51,301.3
"2009-05-17 00:21:30",893157,4.93,334.2,4.629,0.42,14.32,106.4167,15.7,16.8,46.66,0,110.6,13.27,16.51,296.2
"2009-05-17 00:22:00",893158,4.892,330.3,3.078,0.175,14.43,106.4167,15.7,16.79,47.06,0,110.7,13.27,16.51,292.3
"2009-05-17 00:22:30",893159,4.038,331.4,4.799,0.412,14.32,106.4167,15.7,16.78,47,0,110.6,13.27,16.51,293.4
"2009-05-17 00:23:00",893160,3.623,339.6,7.008,0.403,14.56,106.4072,15.68,16.77,47.21,0,110.6,13.27,16.48,301.6
"2009-05-17 00:23:30",893161,4.222,333.7,9.28,0.51,14.48,106.383,15.61,16.73,47.41,0,110.6,13.27,16.42,295.7
"2009-05-17 00:24:00",893162,3.731,342.4,9.05,0.344,14.75,106.3658,15.57,16.7,47.86,0,110.6,13.27,16.38,304.4
"2009-05-17 00:24:30",893163,4.395,340,7.119,0.362,14.64,106.3475,15.52,16.64,48.03,0,110.6,13.27,16.33,302.0
"2009-05-17 00:25:00",893164,4.313,346.7,6.185,0.597,14.69,106.343,15.51,16.61,48.03,0,110.6,13.27,16.32,308.7
"2009-05-17 00:25:30",893165,2.993,352.3,6.28,0.564,14.72,106.3365,15.49,16.59,47.97,0,110.6,13.27,16.30,314.3
"2009-05-17 00:26:00",893166,3.091,352.8,9.16,0.903,14.49,106.3275,15.47,16.59,47.93,0,110.6,13.27,16.28,314.8
"2009-05-17 00:26:30",893167,3.976,340.3,6.236,0.186,14.37,106.3363,15.49,16.56,47.61,0,110.6,13.27,16.30,302.3
"2009-05-17 00:27:00",893168,3.745,345.2,4.803,0.568,14.44,106.3469,15.52,16.57,47.47,0,110.6,13.27,16.33,307.2
"2009-05-17 00:27:30",893169,2.539,343.8,2.992,0.231,14.32,106.3486,15.53,16.56,47.4,0,110.6,13.27,16.33,305.8
"2009-05-17 00:28:00",893170,3.241,339.1,5.982,0.389,14.3,106.3492,15.53,16.55,47.33,0,110.6,13.27,16.33,301.1
"2009-05-17 00:28:30",893171,3.767,337.7,5.996,0.29,14.28,106.3492,15.53,16.57,47.28,0,110.6,13.27,16.33,299.7
"2009-05-17 00:29:00",893172,3.588,341.3,4.835,0.296,14.27,106.3492,15.53,16.57,47.15,0,110.6,13.27,16.33,303.3
"2009-05-17 00:29:30",893173,4.04,338.6,3.745,0.243,14.25,106.3492,15.53,16.58,47.11,0,110.6,13.27,16.33,300.6
"2009-05-17 00:30:00",893174,3.914,336.5,2.09,0.109,14.23,106.3492,15.53,16.59,47.09,0,110.6,13.27,16.33,298.5
"2009-05-17 00:30:30",893175,3.998,339.6,4.714,0.186,14.33,106.3492,15.53,16.6,47.07,0,110.6,13.27,16.33,301.6
"2009-05-17 00:31:00",893176,3.994,335.2,1.653,0.253,14.37,106.3506,15.53,16.6,47,0,110.6,13.26,16.34,297.2
"2009-05-17 00:31:30",893177,3.575,330.4,3.492,0.163,14.33,106.356,15.54,16.61,46.97,0,110.6,13.26,16.35,292.4
"2009-05-17 00:32:00",893178,3.868,333.3,2.238,0.255,14.4,106.3638,15.56,16.6,46.96,0,110.6,13.26,16.37,295.3
"2009-05-17 00:32:30",893179,3.798,331.9,3.805,0.238,14.39,106.3751,15.59,16.6,46.94,0,110.6,13.26,16.40,293.9
"2009-05-17 00:33:00",893180,3.604,331.2,3.868,0.284,14.33,106.3813,15.61,16.63,46.95,0,110.6,13.26,16.42,293.2
"2009-05-17 00:33:30",893181,4.241,332.3,3.298,0.184,14.43,106.383,15.61,16.63,46.92,0,110.6,13.26,16.42,294.3
"2009-05-17 00:34:00",893182,4.552,328.6,2.406,0.226,14.32,106.383,15.61,16.63,47.11,0,110.6,13.26,16.42,290.6
"2009-05-17 00:34:30",893183,4.766,323.6,4.021,0.374,14.33,106.383,15.61,16.64,47.12,0,110.6,13.26,16.42,285.6
"2009-05-17 00:35:00",893184,4.883,330.9,1.416,0.111,14.53,106.383,15.61,16.64,47.12,0,110.6,13.26,16.42,292.9
"2009-05-17 00:35:30",893185,4.591,331.1,2.219,0.215,14.41,106.383,15.61,16.65,47.26,0,110.6,13.26,16.42,293.1
"2009-05-17 00:36:00",893186,4.194,328.4,2.359,0.257,14.46,106.383,15.61,16.66,47.35,0,110.6,13.27,16.42,290.4
"2009-05-17 00:36:30",893187,4.05,327.6,2.387,0.273,14.54,106.383,15.61,16.66,47.26,0,110.6,13.27,16.42,289.6
"2009-05-17 00:37:00",893188,3.443,331.6,3.545,0.132,14.52,106.383,15.61,16.67,47.06,0,110.6,13.27,16.42,293.6
"2009-05-17 00:37:30",893189,3.849,338.2,4.949,0.186,14.48,106.383,15.61,16.66,46.97,0,110.7,13.27,16.42,300.2
"2009-05-17 00:38:00",893190,3.953,343.5,1.992,0.152,14.56,106.383,15.61,16.67,47.02,0,110.6,13.27,16.42,305.5
"2009-05-17 00:38:30",893191,3.702,340.8,3.338,0.235,14.55,106.383,15.61,16.65,46.94,0,110.6,13.27,16.42,302.8
"2009-05-17 00:39:00",893192,3.955,343.9,3.654,0.507,14.46,106.383,15.61,16.67,46.93,0,110.6,13.27,16.42,305.9
"2009-05-17 00:39:30",893193,4.52,332.6,3.73,0.297,14.47,106.383,15.61,16.66,46.95,0,110.6,13.27,16.42,294.6
"2009-05-17 00:40:00",893194,4.041,330.8,4.142,0.278,14.45,106.383,15.61,16.67,47.08,0,110.6,13.27,16.42,292.8
"2009-05-17 00:40:30",893195,4.386,335.7,2.914,0.239,14.44,106.383,15.61,16.66,47.18,0,110.6,13.27,16.42,297.7
"2009-05-17 00:41:00",893196,4.596,330.4,3.293,0.399,14.52,106.3819,15.61,16.66,47.28,0,110.6,13.27,16.42,292.4
"2009-05-17 00:41:30",893197,5.085,337.2,3.787,0.456,14.66,106.379,15.6,16.65,47.69,0,110.6,13.27,16.41,299.2
"2009-05-17 00:42:00",893198,4.557,337.2,3.732,0.168,14.58,106.3776,15.6,16.66,47.83,0,110.6,13.27,16.41,299.2
"2009-05-17 00:42:30",893199,4.793,333.1,2.899,0.267,14.47,106.3689,15.58,16.66,47.7,0,110.6,13.27,16.38,295.1
"2009-05-17 00:43:00",893200,4.732,329.1,4.282,0.269,14.41,106.3647,15.57,16.66,47.62,0,110.6,13.27,16.37,291.1
"2009-05-17 00:43:30",893201,4.423,334.2,5.174,0.314,14.55,106.3588,15.55,16.65,47.61,0,110.6,13.27,16.36,296.2
"2009-05-17 00:44:00",893202,3.705,342.6,7.245,0.444,14.69,106.3534,15.54,16.64,47.67,0,110.6,13.27,16.34,304.6
"2009-05-17 00:44:30",893203,3.52,343.5,2.708,0.23,14.54,106.3495,15.53,16.64,47.58,0,110.6,13.27,16.33,305.5
"2009-05-17 00:45:00",893204,3.873,341.8,2.426,0.122,14.51,106.3492,15.53,16.63,47.13,0,110.6,13.27,16.33,303.8
"2009-05-17 00:45:30",893205,4.202,339,2.367,0.14,14.62,106.3492,15.53,16.62,46.92,0,110.6,13.27,16.33,301.0
"2009-05-17 00:46:00",893206,4.08,340.5,2.976,0.169,14.64,106.3492,15.53,16.62,46.9,0,110.6,13.27,16.33,302.5
"2009-05-17 00:46:30",893207,4.261,336.2,3.998,0.303,14.58,106.3492,15.53,16.61,47.03,0,110.6,13.27,16.33,298.2
"2009-05-17 00:47:00",893208,4.599,333.6,2.193,0.15,14.49,106.3492,15.53,16.62,47.19,0,110.6,13.27,16.33,295.6
"2009-05-17 00:47:30",893209,4.601,331.6,1.335,0.257,14.53,106.3492,15.53,16.61,47.16,0,110.6,13.27,16.33,293.6
"2009-05-17 00:48:00",893210,4.508,333.4,2.787,0.213,14.57,106.3492,15.53,16.63,47.04,0,110.6,13.27,16.33,295.4
"2009-05-17 00:48:30",893211,4.622,332.1,2.179,0.117,14.49,106.3492,15.53,16.62,47.08,0,110.6,13.26,16.33,294.1
"2009-05-17 00:49:00",893212,4.683,332.1,2.231,0.163,14.57,106.3492,15.53,16.6,47.1,0,110.6,13.26,16.33,294.1
"2009-05-17 00:49:30",893213,4.584,334.1,4.22,0.239,14.68,106.3492,15.53,16.6,47.15,0,110.6,13.26,16.33,296.1
"2009-05-17 00:50:00",893214,4.272,337.6,3.058,0.211,14.72,106.3489,15.53,16.59,47.03,0,110.6,13.26,16.33,299.6
"2009-05-17 00:50:30",893215,4.234,332.1,2.412,0.502,14.7,106.345,15.52,16.59,47.09,0,110.6,13.26,16.32,294.1
"2009-05-17 00:51:00",893216,3.838,335.6,3.097,0.295,14.75,106.3357,15.49,16.59,47.08,0,110.6,13.26,16.30,297.6
"2009-05-17 00:51:30",893217,4.064,330.7,3.81,0.225,14.68,106.3287,15.47,16.57,47.28,0,110.6,13.26,16.28,292.7
"2009-05-17 00:52:00",893218,4.589,336.2,3.193,0.203,14.7,106.3233,15.46,16.58,47.26,0,110.6,13.27,16.27,298.2
"2009-05-17 00:52:30",893219,4.345,338.9,2.732,0.099,14.74,106.3199,15.45,16.59,47.2,0,110.6,13.27,16.26,300.9
"2009-05-17 00:53:00",893220,4.507,338.6,2.153,0.175,14.83,106.3163,15.44,16.57,47.17,0,110.6,13.27,16.25,300.6
"2009-05-17 00:53:30",893221,4.288,338.6,1.648,0.156,14.93,106.3154,15.44,16.57,47.16,0,110.6,13.27,16.25,300.6
"2009-05-17 00:54:00",893222,4.634,333.7,4.721,0.182,14.86,106.3154,15.44,16.57,47.14,0,110.6,13.27,16.25,295.7
"2009-05-17 00:54:30",893223,4.199,332.6,1.493,0.266,14.78,106.3154,15.44,16.56,47.3,0,110.6,13.27,16.25,294.6
"2009-05-17 00:55:00",893224,4.612,329.1,2.369,0.203,14.81,106.316,15.44,16.55,47.3,0,110.6,13.27,16.25,291.1
"2009-05-17 00:55:30",893225,4.647,328.8,3.53,0.236,14.78,106.3152,15.44,16.53,47.31,0,110.6,13.27,16.25,290.8
"2009-05-17 00:56:00",893226,4.325,327.6,4.405,0.246,14.69,106.3073,15.42,16.53,47.36,0,110.6,13.27,16.23,289.6
"2009-05-17 00:56:30",893227,3.715,328.6,4.683,0.235,14.72,106.3023,15.41,16.52,47.56,0,110.6,13.27,16.21,290.6
"2009-05-17 00:57:00",893228,4.695,329.5,2.164,0.123,14.66,106.286,15.37,16.52,47.65,0,110.6,13.27,16.17,291.5
"2009-05-17 00:57:30",893229,4.496,332.2,3.639,0.374,14.75,106.2832,15.36,16.51,47.75,0,110.6,13.27,16.16,294.2
"2009-05-17 00:58:00",893230,4.365,332.5,2.576,0.308,14.85,106.2835,15.36,16.5,47.74,0,110.6,13.27,16.16,294.5
"2009-05-17 00:58:30",893231,5.104,332.5,1.55,0.185,14.76,106.2859,15.37,16.48,47.78,0,110.6,13.27,16.17,294.5
"2009-05-17 00:59:00",893232,5.114,333.3,1.414,0.097,14.75,106.2835,15.36,16.47,47.71,0,110.6,13.27,16.16,295.3
"2009-05-17 00:59:30",893233,5.356,330.1,2.375,0.253,14.74,106.2627,15.31,16.46,47.94,0,110.6,13.27,16.11,292.1
"2009-05-17 01:00:00",893234,4.948,325.9,3.158,0.4,14.85,106.2613,15.3,16.45,47.99,0,110.6,13.27,16.11,287.9
"2009-05-17 01:00:30",893235,5.484,330.5,1.315,0.27,14.86,106.2628,15.31,16.43,48,0,110.6,13.27,16.11,292.5
"2009-05-17 01:01:00",893236,4.84,332.9,2.458,0.256,14.81,106.2667,15.32,16.41,47.89,0,110.6,13.27,16.12,294.9
"2009-05-17 01:01:30",893237,5.062,331.7,2.336,0.201,14.83,106.27,15.32,16.4,47.84,0,110.6,13.28,16.13,293.7
"2009-05-17 01:02:00",893238,5.1,329,1.619,0.19,14.89,106.265,15.31,16.4,47.88,0,110.6,13.28,16.12,291.0
"2009-05-17 01:02:30",893239,4.515,333.4,5.162,0.246,14.86,106.2479,15.27,16.39,48.12,0,110.6,13.28,16.07,295.4
"2009-05-17 01:03:00",893240,4.612,332.9,2.185,0.092,14.81,106.2395,15.25,16.36,48,0,110.6,13.28,16.05,294.9
"2009-05-17 01:03:30",893241,4.518,330.2,1.568,0.187,14.89,106.2407,15.25,16.36,48.12,0,110.6,13.28,16.05,292.2
"2009-05-17 01:04:00",893242,4.81,334.5,1.628,0.199,15.01,106.2404,15.25,16.34,48.2,0,110.6,13.27,16.05,296.5
"2009-05-17 01:04:30",893243,4.961,335.5,1.087,0.084,15.1,106.2426,15.25,16.32,48.15,0,110.6,13.27,16.06,297.5
"2009-05-17 01:05:00",893244,5.247,335.1,1.326,0.111,15.04,106.2269,15.21,16.31,47.95,0,110.6,13.27,16.02,297.1
"2009-05-17 01:05:30",893245,4.963,334.5,1.446,0.112,15.13,106.212,15.18,16.3,48.01,0,110.6,13.27,15.98,296.5
"2009-05-17 01:06:00",893246,4.693,337.1,1.574,0.104,15.26,106.215,15.18,16.29,48,0,110.6,13.27,15.99,299.1
"2009-05-17 01:06:30",893247,4.816,335.2,1.729,0.103,15.32,106.2153,15.18,16.27,47.99,0,110.6,13.27,15.99,297.2
"2009-05-17 01:07:00",893248,4.686,335.8,1.171,0.194,15.27,106.2038,15.15,16.26,48,0,110.6,13.27,15.96,297.8
"2009-05-17 01:07:30",893249,4.837,335.4,1.16,0.172,15.3,106.1841,15.1,16.24,47.98,0,110.6,13.27,15.91,297.4
"2009-05-17 01:08:00",893250,4.923,338.1,2.453,0.134,15.37,106.1824,15.1,16.22,48.01,0,110.6,13.27,15.90,300.1
"2009-05-17 01:08:30",893251,5.08,337.3,1.846,0.098,15.23,106.1816,15.1,16.2,48.1,0,110.6,13.27,15.90,299.3
"2009-05-17 01:09:00",893252,4.864,337.3,2.165,0.146,15.38,106.1602,15.04,16.17,48.16,0,110.6,13.28,15.85,299.3
"2009-05-17 01:09:30",893253,4.642,339,0.91,0.075,15.44,106.1489,15.01,16.16,48.19,0,110.6,13.28,15.82,301.0
"2009-05-17 01:10:00",893254,4.686,337.8,1.066,0.121,15.47,106.1484,15.01,16.14,48.26,0,110.6,13.28,15.82,299.8
"2009-05-17 01:10:30",893255,4.705,338.9,1.032,0.109,15.44,106.1377,14.99,16.11,48.28,0,110.6,13.28,15.79,300.9
"2009-05-17 01:11:00",893256,4.743,337.7,1.448,0.171,15.46,106.1213,14.94,16.1,48.31,0,110.6,13.28,15.75,299.7
"2009-05-17 01:11:30",893257,4.749,336.4,2.226,0.116,15.52,106.1149,14.93,16.08,48.31,0,110.6,13.28,15.73,298.4
"2009-05-17 01:12:00",893258,6.005,344.4,6.486,1.293,17.1,106.1149,14.93,16.22,48.51,0,110.6,13.25,15.73,306.4
"2009-05-17 01:12:30",893259,5.793,340.8,5.838,1.235,16.8,106.1109,14.92,16.18,48.61,0,110.5,13.25,15.72,302.8
"2009-05-17 01:13:00",893260,5.009,337.5,1.229,0.115,14.77,106.0853,14.85,16.01,48.54,0,110.5,13.28,15.66,299.5
"2009-05-17 01:13:30",893261,4.896,337,1.713,0.116,14.7,106.0811,14.84,15.99,48.64,0,110.5,13.28,15.64,299.0
"2009-05-17 01:14:00",893262,5.649,339.3,5.914,1.354,16.52,106.0811,14.84,16.13,48.84,0,110.5,13.25,15.64,301.3
"2009-05-17 01:14:30",893263,5.664,337.8,5.782,1.05,15.79,106.0752,14.83,16.08,48.86,0,110.5,13.25,15.63,299.8
"2009-05-17 01:15:00",893264,5.502,336.7,4.608,0.882,15.32,106.0602,14.79,15.96,48.8,0,110.5,13.25,15.59,298.7
"2009-05-17 01:15:30",893265,5.23,335.4,1.35,0.094,14.52,106.0476,14.75,15.91,48.85,0,110.5,13.28,15.56,297.4
"2009-05-17 01:16:00",893266,5.331,336.3,0.921,0.208,14.59,106.0479,14.76,15.9,48.91,0,110.5,13.25,15.56,298.3
"2009-05-17 01:16:30",893267,6.442,340.9,7.214,1.392,16.61,106.0403,14.74,16.05,49.05,0,110.5,13.25,15.54,302.9
"2009-05-17 01:17:00",893268,5.179,334.2,0.724,0.125,14.21,106.0212,14.69,15.86,48.88,0,110.5,13.29,15.49,296.2
"2009-05-17 01:17:30",893269,5.114,334.9,0.714,0.071,13.96,106.0249,14.7,15.84,48.91,0,110.5,13.29,15.50,296.9
"2009-05-17 01:18:00",893270,5.159,336.2,0.997,0.098,14.08,106.0323,14.72,15.81,49.01,0,110.5,13.29,15.52,298.2
"2009-05-17 01:18:30",893271,5.31,338.2,1.136,0.141,14.31,106.0252,14.7,15.82,49.09,0,110.5,13.29,15.50,300.2
"2009-05-17 01:19:00",893272,5.333,337.6,0.878,0.068,14.58,106.0088,14.66,15.77,49.15,0,110.5,13.29,15.46,299.6
"2009-05-17 01:19:30",893273,5.58,333,5.823,0.307,14.54,106.0081,14.65,15.77,49.14,0,110.5,13.29,15.46,295.0
"2009-05-17 01:20:00",893274,5.412,330.7,2.844,0.25,14.65,106.012,14.66,15.75,49.05,0,110.5,13.3,15.47,292.7
"2009-05-17 01:20:30",893275,5.523,331.5,1.64,0.212,14.77,106.0075,14.65,15.73,49.04,0,110.5,13.29,15.46,293.5
"2009-05-17 01:21:00",893276,5.269,333.2,1.585,0.153,14.86,105.9873,14.6,15.71,49.08,0,110.5,13.29,15.40,295.2
"2009-05-17 01:21:30",893277,5.126,333.7,1.546,0.242,15,105.9817,14.59,15.69,49.15,0,110.5,13.29,15.39,295.7
"2009-05-17 01:22:00",893278,4.859,335.7,1.744,0.125,15.1,105.9814,14.59,15.69,49.26,0,110.5,13.29,15.39,297.7
"2009-05-17 01:22:30",893279,4.828,336.8,0.73,0.079,15.16,105.9817,14.59,15.67,49.39,0,110.5,13.29,15.39,298.8
"2009-05-17 01:23:00",893280,4.755,335.1,1.007,0.11,15.1,105.9817,14.59,15.66,49.44,0,110.5,13.29,15.39,297.1
"2009-05-17 01:23:30",893281,4.663,335.7,0.855,0.057,15.03,105.975,14.57,15.64,49.46,0,110.5,13.29,15.37,297.7
"2009-05-17 01:24:00",893282,4.698,336,1.181,0.051,15.09,105.9649,14.54,15.62,49.53,0,110.5,13.29,15.35,298.0
"2009-05-17 01:24:30",893283,4.605,337.6,0.999,0.074,14.94,105.9519,14.51,15.62,49.59,0,110.5,13.29,15.31,299.6
"2009-05-17 01:25:00",893284,4.584,337.5,1.216,0.114,14.91,105.9482,14.5,15.61,49.62,0,110.5,13.29,15.30,299.5
"2009-05-17 01:25:30",893285,4.536,338.5,0.772,0.059,14.77,105.948,14.5,15.6,49.65,0,110.5,13.29,15.30,300.5
"2009-05-17 01:26:00",893286,4.514,337.3,1.171,0.066,14.74,105.948,14.5,15.6,49.63,0,110.5,13.3,15.30,299.3
"2009-05-17 01:26:30",893287,4.588,338.1,1.993,0.106,14.9,105.948,14.5,15.6,49.64,0,110.5,13.3,15.30,300.1
"2009-05-17 01:27:00",893288,4.729,337.3,1.618,0.106,14.96,105.948,14.5,15.58,49.65,0,110.5,13.3,15.30,299.3
"2009-05-17 01:27:30",893289,4.464,335.3,2.075,0.105,14.82,105.948,14.5,15.59,49.64,0,110.5,13.3,15.30,297.3
"2009-05-17 01:28:00",893290,4.666,334.6,2.083,0.179,14.94,105.948,14.5,15.59,49.63,0,110.5,13.3,15.30,296.6
"2009-05-17 01:28:30",893291,4.763,333.8,0.748,0.05,14.98,105.948,14.5,15.58,49.63,0,110.5,13.3,15.30,295.8
"2009-05-17 01:29:00",893292,4.942,334.7,1.04,0.121,14.95,105.948,14.5,15.59,49.62,0,110.5,13.3,15.30,296.7
"2009-05-17 01:29:30",893293,4.583,333,1.922,0.14,14.85,105.9496,14.5,15.6,49.51,0,110.4,13.3,15.31,295.0
"2009-05-17 01:30:00",893294,4.433,336.6,1.394,0.123,14.89,105.9561,14.52,15.59,49.52,0,110.5,13.3,15.32,298.6
"2009-05-17 01:30:30",893295,4.642,334.9,2.097,0.163,14.86,105.9657,14.54,15.59,49.45,0,110.4,13.3,15.35,296.9
"2009-05-17 01:31:00",893296,4.644,334.2,3.035,0.097,14.93,105.9713,14.56,15.6,49.35,0,110.5,13.3,15.36,296.2
"2009-05-17 01:31:30",893297,4.904,332.6,1.753,0.114,15.08,105.9747,14.57,15.6,49.34,0,110.5,13.3,15.37,294.6
"2009-05-17 01:32:00",893298,4.711,332.9,1.576,0.274,15.08,105.9775,14.58,15.6,49.28,0,110.5,13.3,15.38,294.9
"2009-05-17 01:32:30",893299,4.565,335.7,1.119,0.121,15.17,105.9798,14.58,15.62,49.27,0,110.5,13.3,15.38,297.7
"2009-05-17 01:33:00",893300,4.68,336.5,0.779,0.066,15.29,105.9817,14.59,15.62,49.28,0,110.5,13.3,15.39,298.5
"2009-05-17 01:33:30",893301,4.718,335.4,1.431,0.084,15.34,105.9817,14.59,15.62,49.23,0,110.5,13.3,15.39,297.4
"2009-05-17 01:34:00",893302,4.822,332.3,1.536,0.096,15.33,105.9817,14.59,15.62,49.15,0,110.5,13.3,15.39,294.3
"2009-05-17 01:34:30",893303,4.774,334.3,2.062,0.118,15.37,105.9817,14.59,15.63,49.07,0,110.5,13.3,15.39,296.3
"2009-05-17 01:35:00",893304,4.689,333.2,2.129,0.105,15.28,105.9817,14.59,15.63,49.05,0,110.5,13.3,15.39,295.2
"2009-05-17 01:35:30",893305,4.838,334.7,2.411,0.091,15.33,105.9817,14.59,15.63,49.01,0,110.5,13.3,15.39,296.7
"2009-05-17 01:36:00",893306,4.79,331.7,1.297,0.066,15.34,105.9817,14.59,15.63,48.92,0,110.5,13.31,15.39,293.7
"2009-05-17 01:36:30",893307,4.815,331.8,1.795,0.187,15.39,105.9826,14.59,15.64,48.88,0,110.5,13.31,15.39,293.8
"2009-05-17 01:37:00",893308,4.704,334.3,2.799,0.129,15.35,105.9804,14.58,15.64,48.94,0,110.5,13.31,15.39,296.3
"2009-05-17 01:37:30",893309,5.007,334.4,2.455,0.125,15.33,105.9808,14.58,15.63,48.92,0,110.5,13.3,15.39,296.4
"2009-05-17 01:38:00",893310,5.002,333.8,1.504,0.181,15.23,105.9778,14.58,15.63,48.82,0,110.5,13.3,15.38,295.8
"2009-05-17 01:38:30",893311,4.811,334.8,1.936,0.111,15.3,105.9777,14.58,15.63,48.73,0,110.5,13.3,15.38,296.8
"2009-05-17 01:39:00",893312,4.909,331.2,3.258,0.151,15.25,105.9709,14.56,15.64,48.71,0,110.5,13.3,15.36,293.2
"2009-05-17 01:39:30",893313,5.098,331,2.07,0.151,15.26,105.9675,14.55,15.62,48.63,0,110.5,13.3,15.35,293.0
"2009-05-17 01:40:00",893314,5.372,331.4,1.572,0.118,15.3,105.9679,14.55,15.63,48.64,0,110.5,13.3,15.35,293.4
"2009-05-17 01:40:30",893315,5.326,329.5,4.315,0.774,16.05,105.9694,14.55,15.79,48.85,0,110.4,13.26,15.36,291.5
"2009-05-17 01:41:00",893316,5.757,335.1,4.865,1.469,16.55,105.9694,14.55,15.71,48.81,0,110.5,13.26,15.36,297.1
"2009-05-17 01:41:30",893317,6.534,342.8,7.388,1.383,18.06,105.9733,14.56,15.91,48.99,0,110.5,13.26,15.37,304.8
"2009-05-17 01:42:00",893318,6.382,340.1,7.179,1.386,16.77,105.9775,14.58,15.79,48.87,0,110.5,13.26,15.38,302.1
"2009-05-17 01:42:30",893319,5.104,335.3,3.822,0.359,14.77,105.9811,14.58,15.75,48.82,0,110.4,13.3,15.39,297.3
"2009-05-17 01:43:00",893320,4.917,332.7,1.829,0.122,13.55,105.9817,14.59,15.6,48.67,0,110.4,13.3,15.39,294.7
"2009-05-17 01:43:30",893321,4.806,335.4,1.575,0.125,13.57,105.9817,14.59,15.61,48.7,0,110.4,13.3,15.39,297.4
"2009-05-17 01:44:00",893322,4.946,337,1.099,0.105,13.65,105.9759,14.57,15.59,48.77,0,110.4,13.3,15.37,299.0
"2009-05-17 01:44:30",893323,4.841,337.1,1.439,0.07,13.99,105.9626,14.54,15.59,48.78,0,110.4,13.31,15.34,299.1
"2009-05-17 01:45:00",893324,4.945,335.7,0.889,0.109,14.16,105.9514,14.51,15.58,48.76,0,110.5,13.31,15.31,297.7
"2009-05-17 01:45:30",893325,4.888,335.2,1.309,0.122,14.5,105.95,14.5,15.58,48.77,0,110.5,13.31,15.31,297.2
"2009-05-17 01:46:00",893326,4.867,334.7,0.822,0.06,14.82,105.95,14.5,15.56,48.74,0,110.5,13.31,15.31,296.7
"2009-05-17 01:46:30",893327,4.848,333.4,0.466,0.071,14.98,105.95,14.5,15.56,48.71,0,110.5,13.31,15.31,295.4
"2009-05-17 01:47:00",893328,4.784,332.9,0.711,0.076,15.05,105.95,14.5,15.55,48.68,0,110.5,13.31,15.31,294.9
"2009-05-17 01:47:30",893329,4.795,331.9,0.945,0.128,15.14,105.9497,14.5,15.55,48.7,0,110.5,13.31,15.31,293.9